SB KEPS @ AMSAT $ORB25184.1 2Line Orbital Elements 25184.AMSAT QST de W1STR AMSAT Orbital Elements for Amateur Satellites in TLE Format From Orbital Analysis Office New England Sci-Tech STEM Education Center Natick, MA July 03, 2025 To all radio amateurs These element sets describe the orbits of various satellites in use by the amateur radio community. For details see: www.amsat.org/keplerian-elements-formats/ A daily update of element sets is available at: www.amsat.org/tle/daily-bulletin.txt or without bulletin text: www.amsat.org/tle/dailytle.txt AO-07 1 07530U 74089B 25183.64144213 -.00000044 00000-0 14155-4 0 9996 2 07530 101.9929 188.1510 0012642 78.7080 44.5266 12.53689914316710 UO-11 1 14781U 84021B 25183.44286609 .00000961 00000-0 10675-3 0 9992 2 14781 97.7555 149.3613 0006249 259.5973 100.4540 14.89440314205042 AO-27 1 22825U 93061C 25183.15501798 .00000066 00000-0 42468-4 0 9993 2 22825 98.7356 244.8222 0009244 52.3083 307.8936 14.30805681656945 FO-29 1 24278U 96046B 25183.67161781 -.00000044 00000-0 -50411-5 0 9990 2 24278 98.5730 74.5234 0348854 282.8291 73.4092 13.53250118426147 NOAA-15 1 25338U 98030A 25183.81007499 .00000175 00000-0 89657-4 0 9990 2 25338 98.5339 208.3811 0009062 294.1152 65.9081 14.26990997411713 GO-32 1 25397U 98043D 25183.52262649 .00000053 00000-0 42950-4 0 9997 2 25397 98.9712 163.1220 0002116 118.6295 241.5096 14.24319738401555 ISS 1 25544U 98067A 25183.85846065 -.00016683 00000-0 -28156-3 0 9992 2 25544 51.6357 229.3983 0002505 324.9211 7.6111 15.50337006517581 NO-44 1 26931U 01043C 25183.41883573 .00000074 00000-0 58656-4 0 9992 2 26931 67.0513 68.7902 0006172 276.8885 83.1515 14.31743837240377 SO-50 1 27607U 02058C 25183.56874984 .00001146 00000-0 15967-3 0 9990 2 27607 64.5523 129.5708 0058913 329.0217 30.7418 14.81679851212638 CO-55 1 27844U 03031E 25183.51569821 .00000251 00000-0 12826-3 0 9998 2 27844 98.6754 191.4928 0010764 117.6241 242.6032 14.24011056141908 CO-57 1 27848U 03031J 25183.54513126 .00000200 00000-0 10764-3 0 9995 2 27848 98.6781 191.5102 0010427 133.2976 226.9073 14.23343640141638 RS-22 1 27939U 03042A 25183.85826774 .00000809 00000-0 13604-3 0 9999 2 27939 98.3299 353.8742 0010265 299.4484 197.1458 14.72397760164257 CO-58 1 28895U 05043F 25183.64482736 .00001181 00000-0 20038-3 0 9990 2 28895 98.2526 328.2871 0013548 230.3804 129.6207 14.71073667 50338 CO-65 1 32785U 08021C 25183.55040400 .00003678 00000-0 26619-3 0 9994 2 32785 97.7846 154.8874 0010903 129.5058 230.7134 15.04596628932536 CO-66 1 32791U 08021J 25183.62893205 .00009739 00000-0 46648-3 0 9996 2 32791 97.7282 164.1916 0005768 91.2749 268.9146 15.19142903933999 RS-30 1 32953U 08025A 25183.74090140 .00000017 00000-0 50432-4 0 9997 2 32953 82.5011 212.7747 0019084 359.3483 0.7569 12.43165859776414 NOAA-19 1 33591U 09005A 25183.84821115 .00000141 00000-0 99398-4 0 9992 2 33591 98.9963 248.6824 0012747 300.1230 59.8678 14.13384336845399 SRMSAT 1 37841U 11058D 25183.24050207 .00000364 00000-0 53816-4 0 9997 2 37841 19.9737 17.4192 0011753 314.4066 213.8383 14.11441665708316 ZACUBE-1 1 39417U 13066B 25183.85094249 .00003338 00000-0 29105-3 0 9997 2 39417 97.7811 140.7444 0043406 336.7134 23.2120 14.96842227628390 Delfi-N3xt 1 39428U 13066N 25183.75270167 .00004085 00000-0 41721-3 0 9991 2 39428 97.8332 101.1477 0082721 284.6885 74.5174 14.88641232622706 GOMX-1 1 39430U 13066Q 25183.87071440 .00001592 00000-0 25204-3 0 9998 2 39430 97.6817 41.1035 0133643 117.5751 243.9103 14.67713569618826 LO-74 1 39440U 13066AA 25183.84637889 .00003137 00000-0 31862-3 0 9995 2 39440 97.8497 128.2476 0063475 102.9381 257.8935 14.90054366626107 AO-73 1 39444U 13066AE 25183.45677272 .00004870 00000-0 36414-3 0 9999 2 39444 97.7800 145.4619 0041155 310.4985 49.2656 15.02581653627028 DTUSAT-2 1 40030U 14033W 25183.37646615 .00004504 00000-0 29301-3 0 9996 2 40030 98.0562 156.3024 0008720 355.5723 4.5426 15.08504266599839 EO-80 1 40032U 14033Y 25183.39549138 .00004957 00000-0 32138-3 0 9996 2 40032 98.0445 155.9455 0006824 287.1955 72.8525 15.08586334599816 LILACSAT-2 1 40908U 15049K 25183.88430068 .00010166 00000-0 26186-3 0 9996 2 40908 97.5051 204.7985 0010961 81.0227 279.2259 15.39357352541810 IO-86 1 40931U 15052B 25151.18580175 .00001241 00000-0 78118-4 0 9996 2 40931 6.0006 24.0987 0012733 338.8432 21.1169 14.78805930523047 Horyu-4 1 41340U 16012D 25183.46116655 .00015913 00000-0 41276-3 0 9997 2 41340 30.9979 337.9648 0006342 304.7254 55.2794 15.37700272516313 Lapan A3 1 41603U 16040E 25183.85014788 .00002562 00000-0 90618-4 0 9998 2 41603 97.1370 187.5462 0011000 176.5257 183.6062 15.29990235501345 CAS-2T 1 41847U 16066G 25183.48760751 .00001374 00000-0 20207-3 0 9999 2 41847 98.4196 257.7494 0347097 109.1809 254.7284 14.43551779454325 CAS-4B 1 42759U 17034B 25183.70228799 .00059997 00000-0 56406-3 0 9998 2 42759 43.0046 183.7766 0019074 91.5352 268.7699 15.66045610446229 CAS-4A 1 42761U 17034D 25183.71541112 .00064872 00000-0 57348-3 0 9993 2 42761 43.0085 180.5842 0020124 96.8883 263.4273 15.67506311446254 TechnoSat 1 42829U 17042E 25183.83124858 .00002327 00000-0 18241-3 0 9990 2 42829 97.3854 351.4274 0016110 194.9045 165.1708 15.01799292434217 AO-91 1 43017U 17073E 25183.59984305 .00007512 00000-0 38086-3 0 9998 2 43017 97.5211 53.7883 0173103 88.2447 273.8597 15.05035036412673 S-Net D 1 43186U 18014G 25183.59668722 .00003761 00000-0 22261-3 0 9993 2 43186 97.5605 86.2688 0010193 137.8900 222.3115 15.12000006405859 S-Net B 1 43187U 18014H 25183.73475081 .00003932 00000-0 23263-3 0 9997 2 43187 97.5609 86.3783 0010975 133.8198 226.3942 15.11980490405871 S-Net A 1 43188U 18014J 25183.59699799 .00003801 00000-0 22490-3 0 9992 2 43188 97.5617 86.3953 0010824 134.7992 225.4121 15.12004574405853 S-Net C 1 43189U 18014K 25183.20777000 .00003744 00000-0 22169-3 0 9992 2 43189 97.5633 86.0281 0012463 130.3298 229.9023 15.11970612404342 Ten-Koh 1 43677U 18084G 25183.46718513 .00001540 00000-0 12685-3 0 9997 2 43677 98.0853 356.6288 0007479 174.1830 185.9481 15.00656425363676 PO-101 1 43678U 18084H 25183.82811552 .00001836 00000-0 15917-3 0 9994 2 43678 98.1034 0.8399 0008273 200.1890 159.9005 14.98407194363866 QO-100 1 43700U 18090A 25183.57170424 .00000152 00000-0 00000-0 0 9999 2 43700 0.0177 40.0175 0002261 95.4402 16.9758 1.00271743 24178 MinXSS-2 1 43758U 18099A 25183.73923755 .00012484 00000-0 48241-3 0 9995 2 43758 97.5007 249.8571 0012973 78.6808 281.5887 15.26308332360508 AO-95 1 43770U 18099N 25183.72910669 .00006827 00000-0 34269-3 0 9997 2 43770 97.4899 241.5620 0012082 128.1134 232.1191 15.17563853360060 RANGE-A 1 43773U 18099R 25183.87303124 .00004190 00000-0 26653-3 0 9997 2 43773 97.4467 231.5997 0012923 110.2389 250.0231 15.09261559359733 MOVE-II 1 43780U 18099Y 25183.71383976 .00583928 14012-3 16300-2 0 9990 2 43780 97.4633 261.4027 0008167 238.9376 121.1097 15.93621626361460 SNUSat 2 1 43782U 18099AA 25183.59507679 .00005239 00000-0 28437-3 0 9994 2 43782 97.4581 237.9926 0013543 77.6940 282.5808 15.14887740359989 SnugLite 1 43784U 18099AC 25183.68830870 .00007341 00000-0 36512-3 0 9997 2 43784 97.4394 237.6915 0005058 84.4460 275.7350 15.17904878360144 ITASat 1 1 43786U 18099AE 25183.62643476 .00005387 00000-0 30650-3 0 9992 2 43786 97.4551 237.4649 0015796 124.3255 235.9474 15.13163372359942 EAGLET 1 1 43790U 18099AJ 25183.88979877 .00003870 00000-0 24677-3 0 9999 2 43790 97.4751 237.6017 0013621 108.3899 251.8813 15.09213719359581 ESEO 1 43792U 18099AL 25183.84169545 .00000721 00000-0 58287-4 0 9997 2 43792 97.4461 230.5093 0014989 83.7258 276.5674 15.02685405359318 CSIM 1 43793U 18099AM 25183.47212575 .00111399 00000-0 58446-3 0 9999 2 43793 97.4768 263.2271 0004323 131.1159 229.0482 15.80443332361252 JO-97 1 43803U 18099AX 25183.60952318 .00008244 00000-0 37168-3 0 9994 2 43803 97.4647 242.4848 0008824 71.8939 288.3257 15.21253173360271 Suomi 100 1 43804U 18099AY 25183.72738470 .00007132 00000-0 34578-3 0 9996 2 43804 97.4712 241.8313 0013675 71.7988 288.4734 15.18742982360210 ISAT 1 43879U 18111D 25183.51211883 .00014891 00000-0 50484-3 0 9998 2 43879 97.5937 98.4213 0010669 112.8111 247.4257 15.30595750357205 UWE-4 1 43880U 18111E 25183.48820878 .00010810 00000-0 41673-3 0 9993 2 43880 97.5883 96.7132 0013573 124.8869 235.3646 15.26421649357127 Sparrow 1 43881U 18111F 25183.21398053 .00013569 00000-0 44294-3 0 9996 2 43881 97.6085 101.0831 0008078 143.9379 216.2408 15.31866033355253 Prox-1 1 44339U 19036A 25183.53930288 .00007394 00000-0 91433-3 0 9995 2 44339 23.9971 270.9402 0007160 340.7860 19.2367 14.80327842321421 SONATE 1 44400U 19038Q 25183.82055877 .02255106 26382-5 69037-3 0 9999 2 44400 97.6658 214.4913 0010531 224.2257 135.8194 16.26668997333306 Taurus 1 1 44530U 19059C 25183.86473645 .00004599 00000-0 84723-3 0 9996 2 44530 98.6093 324.3691 0008072 328.3135 31.7580 14.66058867307356 Duchifat 3 1 44854U 19089C 25183.78772392 .00033087 00000-0 60988-3 0 9991 2 44854 36.9411 207.4381 0004339 169.0258 191.0594 15.48222625306540 TO-108 1 44881U 19093C 25183.86415674 .00000720 00000-0 89120-4 0 9990 2 44881 97.7920 259.0272 0014529 150.1946 210.0100 14.85639132299539 FloripaSat 1 1 44885U 19093G 25183.78440277 .00004583 00000-0 38591-3 0 9998 2 44885 97.8152 271.4336 0012385 125.9373 234.3000 14.98664633300227 RS-44 1 44909U 19096E 25183.53889120 .00000008 00000-0 -45089-5 0 9996 2 44909 82.5197 212.0245 0216372 241.7597 116.1512 12.79741519257627 UPMSat 2 1 46276U 20061E 25183.18330107 .00056634 00000-0 44195-3 0 9996 2 46276 97.2420 258.3707 0002306 151.7868 208.3521 15.71513391269015 SALSAT 1 46495U 20068K 25183.48199441 .00005767 00000-0 24803-3 0 9998 2 46495 97.8613 162.5732 0013112 84.6315 275.6416 15.22994314262017 CubeSX-Sirius-HSE 1 47951U 21022V 25157.62701764 .07883385 25648-5 89537-3 0 9993 2 47951 97.4004 72.1904 0010275 223.9924 136.0557 16.36879307233400 CubeSX-HSE 1 47952U 21022W 25157.69972699 .06655353 25454-5 93288-3 0 9992 2 47952 97.3980 72.5414 0010307 219.3637 140.6911 16.34906352233436 GRBAlpha 1 47959U 21022AD 25160.45426279 .07940347 25506-5 90589-3 0 9995 2 47959 97.3899 75.6235 0011032 227.2558 132.7812 16.36806138232695 TUBIN 1 48900U 21059X 25183.79448390 .00033278 00000-0 37809-3 0 9994 2 48900 97.6762 354.9411 0004264 143.7217 216.4330 15.62260633223660 LEDSAT 1 49069U 21073D 25183.75076771 .00059576 00000-0 64030-3 0 9998 2 49069 97.3874 266.3056 0006956 351.3567 8.7570 15.63549794215055 CUTE 1 49263U 21088D 25183.18665155 .00013089 00000-0 25443-3 0 9991 2 49263 97.4500 260.1083 0009187 152.4750 207.6988 15.47699676207920 TeikyoSat 4 1 49396U 21102B 25183.58112213 .00001879 00000-0 12681-3 0 9995 2 49396 97.4089 221.1786 0013855 59.3138 300.9454 15.07721117200018 Z-Sat 1 49399U 21102E 25183.80945917 .00003447 00000-0 18963-3 0 9990 2 49399 97.3786 224.6389 0018677 28.8884 331.3378 15.14571695200494 KOSEN 1 1 49402U 21102H 25183.63953042 .00004864 00000-0 22475-3 0 9991 2 49402 97.3690 228.0647 0015569 5.0947 355.0444 15.20543356200792 HO-113 1 50466U 21131B 25183.88598220 .00000409 00000-0 14139-3 0 9994 2 50466 98.5107 273.1252 0005312 73.7957 286.3816 14.40836712184805 Foresail-1 1 52766U 22057AL 25176.64799660 .13857605 27391-5 25307-3 0 9992 2 52766 97.5832 331.2310 0012137 233.7199 258.4922 16.46795272172486 SNUGLITE 2 1 52899U 22065F 25183.39820751 .00000765 00000-0 15765-3 0 9997 2 52899 98.1716 325.1530 0008480 49.3992 310.7946 14.63255841159826 UmKA 1 (RS40S) 1 57172U 23091G 25183.84873666 .00004374 00000-0 23374-3 0 9994 2 57172 97.5565 239.1112 0012824 251.3772 108.6068 15.15558266111000 CubeBel-2 (EU11S) 1 57175U 23091K 25183.88246048 .00007069 00000-0 33412-3 0 9997 2 57175 97.5566 240.4348 0010472 258.0046 102.0015 15.19670577111098 VERONIKA 1 58261U 23174F 25183.79377720 .00178424 00000-0 10732-2 0 9991 2 58261 97.4095 271.4789 0004539 259.5182 100.5572 15.77204648 92330 ENSO 1 58470U 23185J 25183.83827102 .00047625 00000-0 63278-3 0 9996 2 58470 97.3721 259.7403 0004973 2.3524 357.7754 15.58059925 88658 EIRSAT-1 1 58472U 23185L 25183.84768267 .00118082 00000-0 88884-3 0 9991 2 58472 97.3658 262.0957 0002040 330.3752 29.7395 15.72173180 88811 SONATE-2 1 59112U 24043Q 25183.35974300 .00011063 00000-0 31349-3 0 9995 2 59112 97.5161 315.0077 0011333 39.8058 320.4015 15.36373948 73831 MO-122 1 60209U 24125G 25183.56421705 .00013299 00000-0 36975-3 0 9997 2 60209 97.2776 34.9325 0019718 58.7531 301.5642 15.36777624 55489 GRBBeta 1 60237U 24128C 25183.82575014 .00003496 00000-0 26762-3 0 9994 2 60237 61.9925 358.4964 0053614 62.6924 297.9612 15.02802597 53697 Curium One 1 60242U 24128H 25183.62377682 .00005862 00000-0 40854-3 0 9996 2 60242 61.9826 357.1491 0053466 58.8679 301.7642 15.05396673 53708 ROBUSTA-3A 1 60243U 24128J 25183.83297974 .00005837 00000-0 41248-3 0 9995 2 60243 61.9899 357.3228 0052486 56.6206 303.9893 15.04925238 53720 CatSat 1 60246U 24125J 25183.57365970 .00007725 00000-0 25538-3 0 9990 2 60246 97.2578 33.8921 0042355 14.7020 345.5442 15.30751934 53505 HYPERVIEW-1G (RS66S) 1 61772U 24199AP 25183.86989793 .00016487 00000-0 46671-3 0 9999 2 61772 97.3508 52.6880 0015297 108.1836 252.1075 15.36247806 80537 AO-123 1 61781U 24199AY 25183.88596335 .00005286 00000-0 19181-3 0 9998 2 61781 97.3523 51.3363 0017432 113.1555 247.1523 15.28610362 80447 ZIMSAT 2 1 61783U 24199BA 25183.90409450 .00032282 00000-0 75303-3 0 9998 2 61783 97.3482 53.5213 0015104 105.6262 254.6653 15.42046564 83742 HADES-R (SO-124) 1 62690U 25009CK 25183.50303463 .00027398 00000-0 93078-3 0 9991 2 62690 97.4084 264.2395 0002305 47.9731 312.1705 15.30445976 25650 HYDRA-T 1 62692U 25009CM 25183.15759560 .00024791 00000-0 83585-3 0 9993 2 62692 97.4085 263.9375 0001966 46.6976 313.4428 15.30713030 25606 JINJUSat 1B 1 63210U 25052A 25183.62347891 .00007615 00000-0 34596-3 0 9994 2 63210 97.4390 77.4580 0002668 219.4984 140.6058 15.21046129 16750 NUSHSAT 1 1 63211U 25052B 25183.61462347 .00008860 00000-0 39876-3 0 9997 2 63211 97.4380 77.4559 0002522 228.7759 131.3260 15.21318034 16757 TEVEL2-4 1 63213U 25052D 25183.69863864 .00008725 00000-0 39635-3 0 9999 2 63213 97.4300 77.3800 0001409 256.0039 104.1040 15.21006162 16768 TEVEL2-5 1 63214U 25052E 25183.63374281 .00008733 00000-0 39695-3 0 9999 2 63214 97.4299 77.3144 0001411 258.0046 102.1032 15.20982784 16750 TEVEL2-6 1 63215U 25052F 25183.24174444 .00008139 00000-0 37073-3 0 9994 2 63215 97.4298 76.9228 0001434 262.7725 97.3348 15.20934318 16697 TEVEL2-1 1 63217U 25052H 25183.45348409 .00008314 00000-0 38102-3 0 9992 2 63217 97.4274 77.0634 0001726 292.7918 67.3135 15.20714974 16726 TEVEL2-2 1 63218U 25052J 25183.25637130 .00008056 00000-0 36937-3 0 9990 2 63218 97.4274 76.8696 0001727 295.5543 64.5514 15.20712724 16695 TEVEL2-3 1 63219U 25052K 25183.45397977 .00008170 00000-0 37458-3 0 9991 2 63219 97.4274 77.0633 0001711 294.6420 65.4637 15.20709661 16723 TEVEL2-8 1 63237U 25052AD 25183.60346140 .00008013 00000-0 38040-3 0 9998 2 63237 97.4336 77.1077 0006312 302.1507 57.9114 15.19495938 16732 TEVEL2-9 1 63238U 25052AE 25182.94817489 .00007839 00000-0 37300-3 0 9997 2 63238 97.4337 76.4575 0006394 305.0122 55.0512 15.19421244 16633 TEVEL2-7 1 63239U 25052AF 25183.60920594 .00007846 00000-0 37357-3 0 9994 2 63239 97.4338 77.1013 0006403 302.4487 57.6128 15.19398435 16733 HYDRA-W 1 63490U 25052BL 25183.59585062 .00019805 00000-0 81348-3 0 9995 2 63490 97.4289 77.5031 0009427 295.4668 64.5594 15.24195462 16760 HADES-ICM (SO-125) 1 63492U 25052BN 25183.68331688 .00017507 00000-0 72993-3 0 9993 2 63492 97.4291 77.5469 0009712 299.4731 60.5537 15.23714856 16779 /EX